HVN524 VVTS-ZSPD

Flight info

Callsign HVN524
Flight time N/A
Altitude 27000
Route PATMA5A PATMA W12 BMT W1 DAN/K0907F390 A1 KANGU/K0900F410 A1 IKELA/N0486F410 DCT MORTU DCT NOBAD DCT DOTMI/K0900S1250 A470 LJG B221 SHZ W58 BK BK83A
Aircraft A359/H-SDE2E3GHIJ3J4J5LM1ORWXY/LB1D1

Departure

Time 2026-05-06 13:08
Airport Tan Son Nhat International Airport (VVTS)

Arrival

Time N/A
Airport Shanghai Pudong International Airport (ZSPD)
Time Latitude Longitude Altitude Speed Heading
2026-05-06 12:46 10.81761 106.66372 43 ft 0 kts 159°
2026-05-06 12:58 10.81767 106.66370 43 ft 3 kts 159°
2026-05-06 12:58 10.81787 106.66363 41 ft 3 kts 159°
2026-05-06 12:58 10.81805 106.66356 40 ft 1 kts 159°
2026-05-06 12:58 10.81822 106.66348 43 ft 3 kts 142°
2026-05-06 12:59 10.81835 106.66334 40 ft 3 kts 109°
2026-05-06 12:59 10.81838 106.66315 41 ft 3 kts 78°
2026-05-06 12:59 10.81832 106.66295 42 ft 3 kts 66°
2026-05-06 12:59 10.81826 106.66280 42 ft 0 kts 69°
2026-05-06 13:03 10.81830 106.66290 43 ft 4 kts 68°
2026-05-06 13:03 10.81842 106.66321 43 ft 5 kts 68°
2026-05-06 13:04 10.81861 106.66372 43 ft 13 kts 68°
2026-05-06 13:04 10.81895 106.66462 43 ft 14 kts 69°
2026-05-06 13:04 10.81932 106.66559 43 ft 15 kts 69°
2026-05-06 13:04 10.81972 106.66664 43 ft 16 kts 69°
2026-05-06 13:05 10.82013 106.66772 43 ft 17 kts 69°
2026-05-06 13:05 10.82062 106.66883 42 ft 18 kts 54°
2026-05-06 13:05 10.82155 106.66964 41 ft 17 kts 39°
2026-05-06 13:05 10.82221 106.67011 42 ft 10 kts 20°
2026-05-06 13:06 10.82251 106.67009 42 ft 1 kts 341°
2026-05-06 13:06 10.82262 106.67005 42 ft 7 kts 340°
2026-05-06 13:07 10.82335 106.66960 41 ft 14 kts 303°
2026-05-06 13:07 10.82337 106.66865 40 ft 14 kts 248°
2026-05-06 13:07 10.82294 106.66755 38 ft 26 kts 249°
2026-05-06 13:07 10.82151 106.66375 39 ft 88 kts 249°
2026-05-06 13:08 10.81866 106.65617 43 ft 140 kts 249°
2026-05-06 13:08 10.81461 106.64560 91 ft 181 kts 249°
2026-05-06 13:08 10.80987 106.63370 625 ft 183 kts 248°
2026-05-06 13:08 10.80518 106.62160 1222 ft 185 kts 248°
2026-05-06 13:09 10.80055 106.60868 1551 ft 205 kts 248°
2026-05-06 13:09 10.79541 106.59435 1766 ft 226 kts 248°
2026-05-06 13:09 10.78975 106.57882 2067 ft 242 kts 248°
2026-05-06 13:09 10.78357 106.56202 2331 ft 263 kts 248°
2026-05-06 13:10 10.77893 106.54361 2734 ft 275 kts 269°
2026-05-06 13:10 10.78367 106.52499 3364 ft 274 kts 303°
2026-05-06 13:10 10.79746 106.51223 3987 ft 271 kts 338°
2026-05-06 13:10 10.81571 106.50934 4585 ft 268 kts 11°
2026-05-06 13:11 10.83261 106.51665 5163 ft 265 kts 34°
2026-05-06 13:11 10.84881 106.52589 5778 ft 269 kts 26°
2026-05-06 13:11 10.86657 106.53243 6375 ft 273 kts 17°
2026-05-06 13:11 10.88528 106.53659 6943 ft 277 kts 11°
2026-05-06 13:12 10.90455 106.53929 7531 ft 281 kts
2026-05-06 13:12 10.92386 106.54113 8130 ft 284 kts
2026-05-06 13:12 10.94364 106.54286 8745 ft 286 kts
2026-05-06 13:12 10.96251 106.54905 9351 ft 286 kts 32°
2026-05-06 13:13 10.97735 106.56245 9944 ft 287 kts 51°
2026-05-06 13:13 10.99000 106.57879 10275 ft 301 kts 53°
2026-05-06 13:13 11.00292 106.59621 10498 ft 317 kts 53°
2026-05-06 13:13 11.01667 106.61446 10734 ft 331 kts 53°
2026-05-06 13:14 11.03107 106.63335 10972 ft 345 kts 53°
2026-05-06 13:14 11.04611 106.65300 11165 ft 357 kts 52°
2026-05-06 13:14 11.06147 106.67305 11395 ft 369 kts 52°
2026-05-06 13:14 11.07739 106.69382 11703 ft 376 kts 52°
2026-05-06 13:15 11.09357 106.71491 12077 ft 380 kts 52°
2026-05-06 13:15 11.10998 106.73632 12485 ft 384 kts 52°
2026-05-06 13:15 11.12644 106.75780 12905 ft 387 kts 52°
2026-05-06 13:15 11.14309 106.77953 13318 ft 390 kts 52°
2026-05-06 13:16 11.15979 106.80140 13721 ft 393 kts 52°
2026-05-06 13:16 11.17664 106.82341 14086 ft 395 kts 52°
2026-05-06 13:16 11.19346 106.84533 14439 ft 397 kts 52°
2026-05-06 13:16 11.21049 106.86756 14815 ft 400 kts 52°
2026-05-06 13:17 11.22763 106.88993 15187 ft 402 kts 52°
2026-05-06 13:17 11.24486 106.91243 15555 ft 404 kts 52°
2026-05-06 13:17 11.26222 106.93511 15921 ft 407 kts 52°
2026-05-06 13:17 11.27962 106.95786 16282 ft 409 kts 52°
2026-05-06 13:18 11.29722 106.98086 16643 ft 411 kts 52°
2026-05-06 13:18 11.31484 107.00390 17003 ft 413 kts 52°
2026-05-06 13:18 11.33253 107.02705 17354 ft 416 kts 52°
2026-05-06 13:18 11.35077 107.05008 17703 ft 419 kts 49°
2026-05-06 13:19 11.37195 107.07049 18057 ft 421 kts 39°
2026-05-06 13:19 11.39527 107.08881 18363 ft 424 kts 37°
2026-05-06 13:19 11.41899 107.10680 18660 ft 426 kts 37°
2026-05-06 13:19 11.44280 107.12486 18948 ft 428 kts 37°
2026-05-06 13:20 11.46670 107.14303 19249 ft 430 kts 38°
2026-05-06 13:20 11.49080 107.16140 19547 ft 432 kts 38°
2026-05-06 13:20 11.51488 107.17978 19833 ft 434 kts 38°
2026-05-06 13:20 11.53911 107.19829 20101 ft 437 kts 38°
2026-05-06 13:21 11.56352 107.21694 20372 ft 439 kts 38°
2026-05-06 13:21 11.58769 107.23542 20677 ft 441 kts 38°
2026-05-06 13:21 11.61234 107.25427 20973 ft 443 kts 38°
2026-05-06 13:21 11.63703 107.27315 21271 ft 445 kts 38°
2026-05-06 13:22 11.66190 107.29218 21591 ft 447 kts 38°
2026-05-06 13:22 11.68687 107.31128 21882 ft 449 kts 38°
2026-05-06 13:22 11.71194 107.33048 22184 ft 452 kts 38°
2026-05-06 13:22 11.73718 107.34980 22486 ft 454 kts 38°
2026-05-06 13:23 11.76250 107.36919 22786 ft 456 kts 38°
2026-05-06 13:23 11.78804 107.38875 23086 ft 459 kts 38°
2026-05-06 13:23 11.81362 107.40835 23449 ft 460 kts 38°
2026-05-06 13:23 11.83890 107.42772 23734 ft 461 kts 38°
2026-05-06 13:24 11.86458 107.44740 23968 ft 464 kts 38°
2026-05-06 13:24 11.89047 107.46725 24192 ft 466 kts 38°
2026-05-06 13:24 11.91679 107.48743 24493 ft 468 kts 38°
2026-05-06 13:24 11.94256 107.50720 24777 ft 469 kts 38°
2026-05-06 13:25 11.96871 107.52727 25069 ft 471 kts 38°
2026-05-06 13:25 11.99499 107.54744 25349 ft 473 kts 38°
2026-05-06 13:25 12.02139 107.56771 25661 ft 475 kts 38°
2026-05-06 13:25 12.04791 107.58807 25972 ft 477 kts 38°
2026-05-06 13:26 12.07445 107.60845 26291 ft 479 kts 38°
2026-05-06 13:26 12.10127 107.62906 26620 ft 482 kts 38°
2026-05-06 13:26 12.12811 107.64969 26949 ft 484 kts 38°
2026-05-06 13:26 12.15505 107.67039 27287 ft 486 kts 38°
2026-05-06 13:27 12.18217 107.69124 27600 ft 488 kts 38°
2026-05-06 13:27 12.20903 107.71190 27896 ft 492 kts 37°
2026-05-06 13:27 12.23646 107.73300 28191 ft 494 kts 37°
2026-05-06 13:27 12.26404 107.75422 28522 ft 496 kts 37°
2026-05-06 13:28 12.29158 107.77541 28889 ft 497 kts 37°
2026-05-06 13:28 12.31922 107.79670 29158 ft 499 kts 37°
2026-05-06 13:28 12.34625 107.81930 29440 ft 501 kts 41°
2026-05-06 13:28 12.37243 107.84316 29721 ft 503 kts 43°
2026-05-06 13:29 12.39825 107.86748 29996 ft 505 kts 43°
2026-05-06 13:29 12.42400 107.89209 30205 ft 507 kts 43°
2026-05-06 13:29 12.44980 107.91682 30411 ft 510 kts 43°
2026-05-06 13:29 12.47576 107.94166 30648 ft 511 kts 43°
2026-05-06 13:30 12.50142 107.96613 30943 ft 510 kts 43°
2026-05-06 13:30 12.52736 107.99082 31233 ft 510 kts 43°
2026-05-06 13:30 12.55342 108.01557 31480 ft 511 kts 43°
2026-05-06 13:30 12.57946 108.04027 31742 ft 511 kts 43°
2026-05-06 13:31 12.60608 108.06453 31994 ft 511 kts 38°
2026-05-06 13:31 12.63525 108.08540 32238 ft 512 kts 30°
2026-05-06 13:31 12.66732 108.10160 32468 ft 512 kts 21°
2026-05-06 13:31 12.70132 108.11211 32745 ft 511 kts 11°
2026-05-06 13:32 12.72463 108.11584 32848 ft 512 kts
2026-05-06 13:32 12.76027 108.11653 33098 ft 511 kts 358°
2026-05-06 13:32 12.80723 108.11401 33515 ft 510 kts 355°
2026-05-06 13:32 12.84259 108.11131 33702 ft 511 kts 355°
2026-05-06 13:33 12.87794 108.10839 34060 ft 507 kts 354°
2026-05-06 13:33 12.91291 108.10551 34521 ft 501 kts 354°
2026-05-06 13:33 12.93633 108.10363 34700 ft 501 kts 354°
2026-05-06 13:33 12.98236 108.10006 34936 ft 501 kts 354°
2026-05-06 13:34 13.01721 108.09745 35140 ft 501 kts 355°
2026-05-06 13:34 13.04067 108.09573 35284 ft 501 kts 355°
2026-05-06 13:34 13.07497 108.09323 35494 ft 500 kts 355°
2026-05-06 13:34 13.11017 108.09067 35712 ft 500 kts 355°
2026-05-06 13:35 13.14434 108.08819 35892 ft 500 kts 355°
2026-05-06 13:35 13.17904 108.08567 36082 ft 500 kts 354°
2026-05-06 13:35 13.21334 108.08318 36329 ft 498 kts 354°
2026-05-06 13:35 13.24767 108.08068 36748 ft 492 kts 354°
2026-05-06 13:36 13.28179 108.07819 37000 ft 491 kts 354°
2026-05-06 13:36 13.31590 108.07570 37127 ft 491 kts 355°
2026-05-06 13:36 13.34999 108.07322 37274 ft 491 kts 355°
2026-05-06 13:36 13.38408 108.07075 37442 ft 491 kts 354°
2026-05-06 13:37 13.41812 108.06822 37588 ft 491 kts 354°
2026-05-06 13:37 13.45223 108.06566 37748 ft 490 kts 354°
2026-05-06 13:37 13.48619 108.06311 37898 ft 490 kts 354°
2026-05-06 13:37 13.52024 108.06057 38044 ft 489 kts 354°
2026-05-06 13:38 13.55418 108.05803 38219 ft 488 kts 355°
2026-05-06 13:38 13.58792 108.05553 38574 ft 483 kts 355°
2026-05-06 13:38 13.62097 108.05308 38741 ft 482 kts 355°
2026-05-06 13:39 13.68795 108.04809 38865 ft 483 kts 355°
2026-05-06 13:39 13.75513 108.04310 39028 ft 483 kts 355°
2026-05-06 13:40 13.82216 108.03812 39207 ft 483 kts 355°
2026-05-06 13:40 13.88926 108.03312 39351 ft 483 kts 355°
2026-05-06 13:41 13.95637 108.02813 39482 ft 483 kts 355°
2026-05-06 13:41 14.02315 108.02651 39604 ft 484 kts
2026-05-06 13:42 14.09045 108.03124 39731 ft 485 kts
2026-05-06 13:42 14.15759 108.03695 39854 ft 485 kts
2026-05-06 13:43 14.22493 108.04280 39977 ft 485 kts
2026-05-06 13:43 14.29219 108.04854 40089 ft 485 kts
2026-05-06 13:44 14.35950 108.05424 40202 ft 484 kts
2026-05-06 13:44 14.42676 108.05992 40290 ft 484 kts
2026-05-06 13:45 14.49394 108.06560 40378 ft 484 kts
2026-05-06 13:45 14.59433 108.07409 40525 ft 485 kts
2026-05-06 13:46 14.66157 108.07978 40611 ft 484 kts
2026-05-06 13:46 14.72882 108.08549 40662 ft 484 kts
2026-05-06 13:47 14.79597 108.09118 40755 ft 484 kts
2026-05-06 13:47 14.86281 108.09685 40818 ft 484 kts
2026-05-06 13:48 14.93003 108.10257 40816 ft 486 kts
2026-05-06 13:48 14.99772 108.10829 40775 ft 488 kts
2026-05-06 13:49 15.06537 108.11397 40875 ft 488 kts
2026-05-06 13:49 15.13302 108.11971 40952 ft 487 kts
2026-05-06 13:50 15.20070 108.12543 40954 ft 488 kts
2026-05-06 13:50 15.26807 108.13115 40954 ft 489 kts
2026-05-06 13:51 15.33598 108.13693 40933 ft 490 kts
2026-05-06 13:51 15.40388 108.14272 40932 ft 489 kts
2026-05-06 13:52 15.47180 108.14850 40914 ft 489 kts
2026-05-06 13:52 15.53964 108.15429 40914 ft 489 kts
2026-05-06 13:53 15.60750 108.16008 40900 ft 489 kts
2026-05-06 13:53 15.67517 108.16586 40901 ft 487 kts
2026-05-06 13:54 15.74286 108.17165 40898 ft 487 kts
2026-05-06 13:54 15.81012 108.17740 40902 ft 487 kts
2026-05-06 13:55 15.87773 108.18318 40905 ft 487 kts
2026-05-06 13:55 15.94536 108.18900 40910 ft 487 kts
2026-05-06 13:56 16.01138 108.20407 40911 ft 487 kts 20°
2026-05-06 13:56 16.06998 108.23939 40912 ft 490 kts 39°
2026-05-06 13:57 16.11472 108.29227 40908 ft 492 kts 53°
2026-05-06 13:57 16.15326 108.35119 40903 ft 494 kts 56°
2026-05-06 13:58 16.19102 108.41092 40889 ft 494 kts 56°
2026-05-06 13:58 16.22908 108.47054 40892 ft 494 kts 56°
2026-05-06 13:59 16.26731 108.52991 40892 ft 495 kts 55°
2026-05-06 13:59 16.30574 108.58946 40894 ft 496 kts 55°
2026-05-06 14:00 16.34426 108.64919 40897 ft 497 kts 55°
2026-05-06 14:00 16.38295 108.70866 40898 ft 497 kts 54°
2026-05-06 14:01 16.42234 108.76733 40897 ft 497 kts 54°
2026-05-06 14:01 16.46200 108.82631 40898 ft 497 kts 54°
2026-05-06 14:02 16.50158 108.88554 40899 ft 498 kts 54°
2026-05-06 14:02 16.54106 108.94483 40899 ft 498 kts 54°
2026-05-06 14:03 16.58017 109.00393 40911 ft 498 kts 54°
2026-05-06 14:03 16.61897 109.06371 40911 ft 498 kts 55°
2026-05-06 14:04 16.65771 109.12363 40912 ft 498 kts 55°
2026-05-06 14:04 16.69645 109.18344 40908 ft 497 kts 54°
2026-05-06 14:05 16.72552 109.22831 40910 ft 496 kts 54°
2026-05-06 14:05 16.76162 109.28402 40914 ft 496 kts 54°
2026-05-06 14:06 16.80023 109.34367 40912 ft 496 kts 55°
2026-05-06 14:06 16.83884 109.40338 40912 ft 496 kts 54°
2026-05-06 14:07 16.87741 109.46300 40915 ft 495 kts 54°
2026-05-06 14:07 16.91592 109.52247 40915 ft 495 kts 54°
2026-05-06 14:08 16.95447 109.58208 40915 ft 495 kts 54°
2026-05-06 14:08 16.99274 109.64133 40916 ft 495 kts 54°
2026-05-06 14:09 17.03119 109.70092 40913 ft 495 kts 54°
2026-05-06 14:09 17.06960 109.76049 40912 ft 495 kts 55°
2026-05-06 14:10 17.10808 109.82022 40914 ft 495 kts 54°
2026-05-06 14:10 17.14648 109.87989 40918 ft 495 kts 54°
2026-05-06 14:11 17.18493 109.93968 40921 ft 495 kts 54°
2026-05-06 14:11 17.22336 109.99949 40921 ft 495 kts 54°
2026-05-06 14:12 17.26179 110.05935 40920 ft 495 kts 54°
2026-05-06 14:12 17.29994 110.11885 40919 ft 495 kts 55°
2026-05-06 14:13 17.33838 110.17883 40923 ft 495 kts 55°
2026-05-06 14:13 17.37670 110.23868 40925 ft 495 kts 54°
2026-05-06 14:14 17.41478 110.29820 40922 ft 495 kts 54°
2026-05-06 14:14 17.45335 110.35811 40922 ft 495 kts 54°
2026-05-06 14:15 17.49223 110.41774 40923 ft 495 kts 54°
2026-05-06 14:15 17.53110 110.47747 40929 ft 495 kts 54°
2026-05-06 14:16 17.56985 110.53720 40925 ft 495 kts 54°
2026-05-06 14:16 17.60829 110.59657 40928 ft 495 kts 54°
2026-05-06 14:17 17.64696 110.65637 40924 ft 495 kts 54°
2026-05-06 14:17 17.68563 110.71620 40927 ft 495 kts 54°
2026-05-06 14:18 17.72423 110.77599 40929 ft 495 kts 54°
2026-05-06 14:18 17.76276 110.83571 40926 ft 495 kts 54°
2026-05-06 14:19 17.80140 110.89566 40927 ft 495 kts 54°
2026-05-06 14:19 17.83975 110.95522 40929 ft 495 kts 54°
2026-05-06 14:20 17.87828 111.01510 40932 ft 495 kts 54°
2026-05-06 14:20 17.91685 111.07511 40932 ft 495 kts 54°
2026-05-06 14:21 17.95539 111.13512 40926 ft 495 kts 54°
2026-05-06 14:21 17.99370 111.19482 40929 ft 496 kts 54°
2026-05-06 14:22 18.03221 111.25491 40932 ft 496 kts 54°
2026-05-06 14:22 18.07064 111.31491 40931 ft 495 kts 54°
2026-05-06 14:23 18.10911 111.37503 40930 ft 495 kts 54°
2026-05-06 14:23 18.14759 111.43522 40929 ft 496 kts 54°
2026-05-06 14:24 18.17953 111.48523 40930 ft 496 kts 54°
2026-05-06 14:24 18.21797 111.54547 40933 ft 496 kts 54°
2026-05-06 14:25 18.25640 111.60573 40931 ft 496 kts 54°
2026-05-06 14:25 18.29491 111.66619 40927 ft 496 kts 54°
2026-05-06 14:26 18.33332 111.72655 40929 ft 496 kts 54°
2026-05-06 14:26 18.37151 111.78662 40930 ft 496 kts 54°
2026-05-06 14:27 18.40993 111.84711 40931 ft 496 kts 54°
2026-05-06 14:27 18.44831 111.90758 40931 ft 496 kts 54°
2026-05-06 14:28 18.48667 111.96809 40934 ft 496 kts 54°
2026-05-06 14:28 18.52502 112.02863 40934 ft 497 kts 54°
2026-05-06 14:29 18.56326 112.08906 40931 ft 497 kts 54°
2026-05-06 14:29 18.60167 112.14983 40935 ft 497 kts 54°
2026-05-06 14:30 18.63997 112.21048 40935 ft 496 kts 54°
2026-05-06 14:30 18.67548 112.27298 40938 ft 498 kts 59°
2026-05-06 14:31 18.70811 112.33745 40941 ft 498 kts 60°
2026-05-06 14:31 18.74021 112.40214 40948 ft 498 kts 60°
2026-05-06 14:32 18.77214 112.46659 40931 ft 499 kts 60°
2026-05-06 14:32 18.80434 112.53151 40949 ft 499 kts 60°
2026-05-06 14:33 18.83655 112.59641 40934 ft 498 kts 60°
2026-05-06 14:33 18.86870 112.66125 40933 ft 499 kts 60°